Probability
0 0 0 0 0 0 0 0 0 0 0 0 0 0 0 0 0 0 0 0 0 0 0 0 0 0 0 0 0 0 0 0 0 0 0 0 0 0 0 0 0 0 0 0
0 0 0 0 0 0 0 0 0 0 0 0 0 0 0 0 0 0 0 0 0 0 0 0 0 0 0 0 0 0 0 0 0 0 0 0 0 0 0 0 0 0 0 0
0 0 0 0 0 0 0 0 0 0 0 0 0 0 0 0 0 0 0 0 0 0 0 0 0 0 0 0 0 0 0 0 0 0 0 0 0 0 0 0 0 0 0 0
0 0 0 0 0 0 0 0 0 0 0 0 0 0 0 0 0 0 0 0 0 0 0 0 0 0 0 0 0 0 0 0 0 0 0 0 0 0 0 0 0 0 0 0
0 0 0 0 0 0 0 0 0 0 0 0 0 0 0 0 0 0 0 0 0 0 0 0 0 0 0 0 0 0 0 0 0 0 0 0 0 0 0 0 0 0 0 0
0 0 0 0 0 0 0 0 0 0 0 0 0 0 0 0 0 0 0 0 0 0 0 0 0 0 0 0 0 0 0 0 0 0 0 0 0 0 0 0 0 0 0 0
0 0 0 0 0 0 0 0 0 0 0 0 0 0 0 0 0 0 0 0 0 0 0 0 0 0 0 0 0 0 0 0 0 0 0 0 0 0 0 0 0 0 0 0
0 0 0 0 0 0 0 0 0 0 0 0 0 0 0 0 0 0 0 0 0 0 0 0 0 0 0 0 0 0 0 0 0 0 0 0 0 0 0 0 0 0 0 0
0 0 0 0 0 0 0 0 0 0 0 0 0 0 0 0 0 0 0 0 0 0 0 0 0 0 0 0 0 0 0 0 0 0 0 0 0 0 0 0 0 0 0 0
0 0 0 0 0 0 0 0 0 0 0 0 0 0 0 0 0 0 0 0 0 0 0 0 0 0 0 0 0 0 0 0 0 0 0 0 0 0 0 0 0 0 0 0
0 0 0 0 0 0 0 0 0 0 0 0 0 0 0 0 0 0 0 0 0 0 0 0 0 0 0 0 0 0 0 0 0 0 0 0 0 0 0 0 0 0 0 0
0 0 0 0 0 0 0 0 0 0 0 0 0 0 0 0 0 0 0 0 0 0 0 0 0 0 0 0 0 0 0 0 0 0 0 0 0 0 0 0 0 0 0 0
0 0 0 0 0 0 0 0 0 0 0 0 0 0 0 0 0 0 0 0 0 0 0 0 0 0 0 0 0 0 0 0 0 0 0 0 0 0 0 0 0 0 0 0
0 0 0 0 0 0 0 0 0 0 0 0 0 0 0 0 0 0 0 0 0 0 0 0 0 0 0 0 0 0 0 0 0 0 0 0 0 0 0 0 0 0 0 0
0 0 0 0 0 0 0 0 0 0 0 0 0 0 0 0 0 0 0 0 0 0 0 0 0 0 0 0 0 0 0 0 0 0 0 0 0 0 0 0 0 0 0 0
0 0 0 0 0 0 0 0 0 0 0 0 0 0 0 0 0 0 0 0 0 0 0 0 0 0 0 0 0 0 0 0 0 0 0 0 0 0 0 0 0 0 0 0
0 0 0 0 0 0 0 0 0 0 0 0 0 0 0 0 0 0 0 0 0 0 0 0 0 0 0 0 0 0 0 0 0 0 0 0 0 0 0 0 0 0 0 0
0 0 0 0 0 0 0 0 0 0 0 0 0 0 0 0 0 0 0 0 0 0 0 0 0 0 0 0 0 0 0 0 0 0 0 0 0 0 0 0 0 0 0 0
0 0 0 0 0 0 0 0 0 0 0 0 0 0 0 0 0 0 0 0 0 0 0 0 0 0 0 0 0 0 0 0 0 0 0 0 0 0 0 0 0 0 0 0
0 0 0 0 0 0 0 0 0 0 0 0 0 0 0 0 0 0 0 0 0 0 0 0 0 0 0 0 0 0 0 0 0 0 0 0 0 0 0 0 0 0 0 0
0 0 0 0 0 0 0 0 0 0 0 0 0 0 0 0 0 0 0 0 0 0 0 0 0 0 0 0 0 0 0 0 0 0 0 0 0 0 0 0 0 0 0 0
0 0 0 0 0 0 0 0 0 0 0 0 0 0 0 0 0 0 0 0 0 0 0 0 0 0 0 0 0 0 0 0 0 0 0 0 0 0 0 0 0 0 0 0
0 0 0 0 0 0 0 0 0 0 0 0 0 0 0 0 0 0 0 0 0 0 0 0 0 0 0 0 0 0 0 0 0 0 0 0 0 0 0 0 0 0 0 0
0 0 0 0 0 0 0 0 0 0 0 0 0 0 0 0 0 0 0 0 0 0 0 0 0 0 0 0 0 0 0 0 0 0 0 0 0 0 0 0 0 0 0 0
0 0 0 0 0 0 0 0 0 0 0 0 0 0 0 0 0 0 0 0 0 0 0 0 0 0 0 0 0 0 0 0 0 0 0 0 0 0 0 0 0 0 0 0
0 0 0 0 0 0 0 0 0 0 0 0 0 0 0 0 0 0 0 0 0 0 0 0 0 0 0 0 0 0 0 0 0 0 0 0 0 0 0 0 0 0 0 0
0 0 0 0 0 0 0 0 0 0 0 0 0 0 0 0 0 0 0 0 0 0 0 0 0 0 0 0 0 0 0 0 0 0 0 0 0 0 0 0 0 0 0 0
Wind_Speed
14 8 7 9 11 14 18 21 19 23 26 27 10 11 11 10 8 7 7 8 10 11 11 11 12 13 14 14 14 14 15 16 16 14 14 14 14 14 14 13 13 12 11 10
18 17 11 10 12 18 23 21 24 24 33 25 7 9 10 11 11 11 11 12 12 12 12 13 15 15 15 16 16 15 17 16 13 14 14 15 15 14 14 13 12 12 12 12
17 16 10 20 27 23 17 15 14 25 37 21 11 12 15 15 13 13 14 13 13 13 14 15 16 16 18 16 13 15 15 13 13 15 16 16 15 15 16 15 13 13 12 12
10 12 25 18 14 20 24 24 21 19 23 20 15 12 12 11 11 12 12 12 11 11 12 13 13 12 11 10 12 14 14 13 14 15 15 14 15 16 15 13 13 13 13 13
10 19 18 13 9 12 17 23 24 27 29 27 14 8 15 11 10 13 11 10 10 10 10 9 10 10 10 11 12 14 15 15 14 14 15 15 16 16 12 12 12 11 11 12
15 16 13 12 6 8 10 16 15 17 24 24 11 11 17 4 5 7 7 6 6 5 4 5 7 9 12 12 13 15 14 12 11 12 14 15 14 12 8 9 10 10 9 10
22 19 10 7 3 10 12 13 4 8 13 12 11 13 7 3 2 3 4 5 4 2 2 3 5 9 10 11 12 10 8 9 10 10 10 10 9 8 9 8 8 8 8 7
15 18 13 5 8 12 8 1 2 2 3 4 5 4 2 2 2 3 4 4 3 2 2 2 5 8 8 8 6 8 9 9 9 9 8 8 10 9 9 10 10 9 8 7
7 7 3 5 7 4 2 3 2 2 1 2 2 1 1 1 2 3 4 4 3 4 5 5 3 5 6 5 8 9 9 9 9 9 8 9 10 10 9 9 8 8 8 8
6 7 5 4 3 2 2 3 2 2 2 2 2 1 1 1 2 3 4 4 3 5 6 6 5 5 5 6 8 9 9 8 8 9 8 8 7 8 8 9 9 8 8 8
7 5 2 5 6 5 3 3 2 2 2 2 3 2 2 2 2 3 3 4 4 6 7 6 6 7 5 5 8 9 8 8 8 7 8 7 6 6 7 6 8 9 8 7
6 5 5 5 4 5 5 4 4 4 2 1 2 3 4 4 3 4 5 5 6 7 8 7 8 8 7 4 5 8 7 6 5 5 5 5 5 3 5 5 8 10 9 7
5 3 3 2 2 3 4 3 3 3 3 3 3 4 5 5 5 5 6 7 7 7 8 8 8 9 8 6 4 6 6 6 5 5 5 5 5 6 4 3 4 5 7 8
2 1 2 2 2 2 3 4 5 5 5 4 4 5 6 7 7 8 7 6 7 9 9 8 9 9 8 6 5 6 6 5 5 4 4 4 4 4 4 5 4 1 1 2
2 2 3 1 2 3 4 5 6 5 5 5 6 6 7 8 8 7 6 6 8 10 9 8 9 8 8 6 6 6 5 4 4 4 4 4 4 4 3 4 4 3 2 3
2 1 2 3 4 3 3 4 5 5 4 5 6 7 8 9 9 8 8 7 8 9 8 8 8 6 7 6 6 6 5 6 5 4 4 4 3 4 3 4 4 3 3 2
2 3 3 3 3 3 3 3 4 5 5 6 6 7 8 9 9 9 9 9 10 9 8 7 6 6 6 6 6 5 5 5 6 5 4 3 3 3 3 3 3 3 2 2
4 4 3 1 3 5 5 5 6 6 4 5 6 7 8 8 8 7 6 6 8 10 9 7 5 6 6 6 5 4 4 4 4 4 4 4 3 3 3 3 3 3 2 0
5 5 6 7 6 6 6 5 5 5 6 6 8 9 8 8 7 6 6 7 8 8 6 7 8 7 6 6 6 4 5 5 5 4 4 5 4 3 3 3 2 2 2 1
5 6 7 8 8 7 7 6 6 7 7 7 9 10 10 8 6 6 8 9 5 3 3 4 5 5 6 6 7 4 5 5 5 4 4 3 3 2 2 2 2 1 1 1
5 6 7 8 9 9 8 7 7 9 8 8 9 9 8 6 5 5 6 7 5 4 4 5 4 4 4 4 5 4 4 4 4 3 3 2 2 2 1 1 1 1 2 2
4 5 7 8 9 9 8 8 8 10 10 10 9 8 8 8 7 7 7 4 2 4 3 3 3 4 4 4 3 3 3 3 2 2 1 1 1 1 1 2 2 2 3 3
5 6 8 8 9 9 10 9 9 9 10 10 9 8 8 6 5 4 4 3 3 4 3 3 3 3 4 3 2 2 2 1 1 0 1 1 2 2 2 3 3 3 3 4
7 8 8 8 8 10 11 9 9 8 9 9 8 7 6 5 5 5 3 3 5 5 3 4 5 5 4 2 1 1 1 1 1 2 2 2 3 3 3 4 4 4 4 5
8 9 9 9 9 8 7 7 8 8 8 7 8 8 6 4 3 3 3 4 5 5 3 5 7 6 3 2 2 2 2 3 3 3 3 3 4 4 4 5 5 5 5 5
8 8 8 8 6 5 5 5 6 5 5 5 5 5 5 4 4 4 3 4 5 5 4 3 4 4 3 3 3 3 3 4 4 4 5 5 5 5 5 6 7 6 6 6
8 7 7 7 7 6 6 5 6 5 5 4 4 4 5 4 4 5 5 4 4 4 3 3 3 3 3 3 4 4 4 4 4 5 5 5 5 6 6 7 6 6 6 6
Wind_Direction
243 228 186 197 205 203 210 220 230 246 253 254 212 232 246 252 252 242 235 227 221 220 216 210 208 207 205 202 194 187 187 192 193 185 182 179 178 178 177 178 179 176 173 171
243 239 219 227 226 218 221 228 237 252 259 258 225 225 242 246 246 247 243 237 230 224 217 213 212 210 205 204 196 189 193 196 186 179 180 181 180 177 177 178 176 174 178 177
243 239 218 234 230 224 222 218 215 238 253 264 244 232 238 245 243 242 243 241 235 226 220 217 214 207 206 203 188 190 195 190 183 180 182 182 178 177 181 181 176 179 181 181
244 235 238 240 227 218 225 232 225 236 253 255 242 239 243 241 242 247 245 243 240 233 228 222 214 205 198 182 183 190 193 190 185 182 181 177 178 183 183 179 181 183 184 187
236 245 252 256 232 196 211 238 230 233 248 258 257 279 268 244 232 245 250 246 243 238 233 222 204 190 175 178 182 188 194 193 186 180 178 178 183 185 181 176 181 184 182 183
236 243 238 241 227 179 170 243 240 221 239 251 249 252 266 271 247 261 272 271 266 260 236 216 194 167 170 179 183 194 194 186 177 177 179 183 183 177 170 173 177 175 179 184
236 245 246 246 178 132 180 236 245 207 227 239 227 234 269 324 327 317 309 307 303 282 238 211 164 157 170 178 192 186 165 159 164 171 173 170 164 158 156 157 159 166 171 177
228 238 241 193 154 182 212 199 176 197 220 225 237 268 302 330 337 344 343 344 352 18 33 63 134 151 164 178 163 141 144 150 155 157 155 153 154 153 155 159 165 171 175 184
220 235 244 181 202 217 180 195 202 194 209 204 227 256 300 7 9 7 10 10 21 67 67 56 82 130 145 142 131 132 137 144 147 147 149 154 157 158 159 167 174 181 187 199
237 245 239 235 240 237 204 200 196 187 185 186 197 197 139 70 30 25 23 24 44 75 76 61 56 74 101 119 126 129 135 137 141 146 148 151 155 161 168 176 183 187 194 205
235 244 271 257 234 221 204 193 186 176 173 170 164 152 134 108 68 51 43 38 56 74 77 67 61 63 71 102 122 126 131 135 141 146 151 155 157 170 176 184 191 191 198 198
236 221 207 231 216 194 193 206 198 178 151 89 128 135 116 96 76 71 66 62 68 72 77 70 65 57 42 53 108 124 128 134 138 140 142 145 146 135 178 172 195 208 206 198
252 258 221 246 202 182 184 192 172 155 139 118 88 103 109 94 75 70 67 66 73 76 75 71 65 50 24 18 80 112 125 130 129 133 139 144 149 154 149 146 164 187 201 201
250 231 235 230 222 171 146 123 106 86 71 75 83 88 95 92 79 67 59 61 74 77 71 69 65 42 6 9 65 89 100 109 118 128 136 144 151 154 155 158 155 121 46 151
245 236 224 163 106 103 109 115 109 97 83 66 65 79 89 92 82 63 47 64 77 70 62 60 59 30 358 16 62 77 84 88 92 98 103 113 121 125 129 140 144 140 97 50
281 224 146 143 137 117 108 119 123 112 92 84 79 78 82 87 82 64 45 46 73 68 52 54 49 11 359 27 61 66 67 78 85 93 96 101 109 120 128 134 139 146 153 149
185 182 167 161 145 113 84 79 102 104 93 89 92 100 102 98 84 70 59 58 71 69 53 49 39 11 20 37 58 68 70 72 77 82 84 93 101 112 122 129 137 140 149 184
3 9 12 88 136 123 97 73 75 77 74 87 96 92 88 90 93 88 85 88 82 65 41 24 37 35 35 42 54 64 73 73 72 79 81 82 86 91 101 112 125 131 121 53
24 31 40 49 59 86 86 74 65 66 69 86 91 86 80 79 83 83 76 70 66 60 22 1 40 45 37 44 62 60 73 77 74 70 73 82 79 77 87 101 112 121 128 116
42 48 61 63 58 66 76 73 75 72 67 84 94 91 82 73 74 81 80 70 48 29 352 13 36 41 37 41 54 59 67 75 80 79 76 79 87 89 91 103 117 133 152 183
50 62 71 76 72 64 61 68 81 80 70 72 85 90 89 76 63 67 77 72 23 12 29 38 41 37 37 46 54 60 66 71 77 82 87 92 99 107 117 135 169 197 212 225
53 70 77 81 83 72 59 61 74 81 80 76 76 81 82 74 68 66 58 63 20 19 35 33 31 39 47 50 53 59 63 70 75 84 98 121 151 186 210 219 225 230 232 234
67 74 78 79 83 83 72 63 64 71 73 71 68 67 70 64 48 65 66 24 7 31 38 17 22 53 57 52 51 51 51 50 43 266 225 226 225 227 233 237 237 236 237 238
74 76 77 80 82 80 73 64 64 67 71 68 59 53 56 67 56 42 45 20 21 30 20 359 15 33 52 40 23 4 329 296 277 266 256 250 244 241 241 242 246 244 243 244
71 70 69 71 71 69 73 75 71 65 66 63 54 45 41 42 56 29 17 17 15 20 8 2 6 10 12 343 316 294 279 266 259 254 250 249 247 245 244 242 242 244 243 242
67 67 63 58 57 56 58 63 65 56 56 61 49 33 27 27 31 26 19 14 9 5 357 346 340 336 325 308 293 283 275 272 270 259 251 251 250 248 247 247 246 244 243 242
62 60 60 55 43 39 46 54 60 53 44 50 50 25 19 19 19 15 10 3 356 348 339 330 323 315 306 298 289 282 275 270 265 262 259 255 253 251 251 250 249 246 244 244